Dewpoint
72 74 75 75 75 75 74 74 74 74 74 75 75 75 76 76 75 75 74 74 74 75 75 75 74 75 75 74 74 74 74 73 72 72 72 72 72 73 75 75 76 75 75 74 74 74 74 74 74 74 75 75 75 75 75 75 75 75 75 75 75 74 75 75 75 75 75 75 75 76 75 75 75 75 75 75 74 74 74 74 74 74 74 74 73
72 74 75 74 74 74 73 72 72 73 73 73 74 74 74 74 74 74 73 73 74 74 75 75 75 75 74 74 74 74 74 73 72 72 72 72 72 72 75 74 75 75 75 75 74 75 74 74 74 74 74 75 75 75 75 75 75 75 75 75 75 75 75 75 75 75 75 75 75 75 75 75 75 75 75 75 74 74 74 74 74 74 74 74 74
72 74 74 73 73 73 71 70 70 70 72 72 73 74 73 73 73 73 73 73 73 74 74 74 75 75 75 74 74 74 74 73 72 72 72 72 72 72 73 74 75 75 75 75 75 74 75 75 75 75 74 75 75 75 75 75 75 75 75 75 75 75 75 75 75 75 75 75 75 75 75 76 76 75 75 75 75 74 75 74 74 74 74 73 74
72 73 72 72 71 71 70 70 70 70 70 70 71 73 73 72 72 72 72 73 73 74 75 75 75 75 74 74 75 75 74 74 73 73 73 72 72 72 72 74 74 75 76 75 75 75 74 74 75 74 75 75 75 75 75 75 75 75 75 75 75 75 75 75 75 75 75 75 75 75 75 75 75 75 75 75 75 75 75 75 75 75 74 74 74
73 71 74 70 69 69 69 71 70 69 70 69 70 72 72 71 71 73 72 73 73 74 75 74 74 74 74 74 74 75 75 74 74 74 75 73 73 73 73 74 74 74 76 75 75 75 75 74 75 75 75 75 74 75 75 75 75 75 76 75 75 75 75 75 75 75 75 75 75 75 75 75 75 75 75 76 76 76 75 75 75 75 75 75 75
75 73 72 71 71 71 70 69 69 69 70 70 70 71 70 70 69 71 73 73 72 74 74 73 73 73 73 73 72 73 75 74 74 74 74 74 74 74 74 74 73 73 74 75 75 74 75 75 75 75 75 74 74 75 75 75 75 75 75 75 75 75 75 75 75 75 75 75 75 75 75 75 76 75 75 75 76 76 76 76 76 76 76 76 76
74 74 73 73 71 70 70 69 69 70 73 70 70 70 69 68 69 68 71 71 71 72 73 73 72 73 73 73 72 73 75 74 74 74 74 73 74 74 74 74 73 73 73 74 75 74 75 75 75 75 75 75 74 74 75 75 75 75 75 75 75 75 75 75 75 75 75 75 75 76 76 75 75 75 75 75 75 76 76 76 76 76 76 76 76
74 75 74 73 72 71 71 71 70 70 70 70 70 69 69 69 70 68 70 71 72 72 73 72 72 73 73 73 72 74 73 73 73 74 74 73 74 73 74 74 73 73 74 74 73 74 75 75 75 75 75 75 75 75 74 74 75 75 75 75 75 75 75 75 75 75 75 75 75 75 75 75 75 76 76 75 75 76 76 76 76 76 76 76 76
75 75 73 73 72 72 71 70 70 72 71 71 71 70 69 68 69 70 69 71 70 70 70 71 71 72 73 72 72 73 73 73 73 73 74 73 73 73 73 73 74 75 74 74 73 73 75 75 75 75 75 75 75 75 75 75 75 75 75 75 75 75 75 76 76 75 75 75 76 75 75 75 75 75 75 76 76 76 76 76 76 76 76 76 76
75 74 74 73 72 72 71 70 70 71 71 71 70 72 71 70 68 72 69 71 70 69 68 70 71 71 71 72 72 73 73 73 74 75 73 72 72 72 72 73 73 74 74 74 73 74 74 75 75 75 75 75 75 75 75 74 74 74 75 75 75 75 76 75 75 75 75 75 76 75 75 75 75 75 75 75 76 76 76 76 76 76 76 75 76
74 74 74 73 73 72 72 72 72 70 70 69 69 71 73 70 67 69 71 70 70 68 67 69 71 71 71 71 72 72 72 74 75 75 73 72 72 73 73 73 73 74 74 74 74 74 73 74 74 74 74 76 75 75 76 75 75 75 75 75 75 75 76 76 75 75 75 75 75 76 76 76 75 75 75 75 75 76 76 76 76 76 76 76 76
74 74 74 74 73 72 71 72 72 71 69 68 68 70 69 69 69 67 69 70 70 68 69 70 70 69 70 71 70 71 72 74 74 74 74 73 73 73 73 73 73 73 74 74 74 74 74 73 75 74 74 75 76 75 75 76 75 75 75 75 75 75 75 76 76 75 75 75 75 76 76 76 76 76 76 76 76 76 76 76 76 76 76 76 76
74 74 73 74 74 72 72 72 72 72 70 68 68 69 69 68 70 74 69 66 67 67 68 68 67 69 69 70 70 71 72 73 74 74 73 73 73 74 73 73 73 73 74 74 74 74 74 74 74 74 74 74 75 75 75 76 76 76 76 75 75 76 76 76 76 76 75 75 75 75 76 76 76 76 76 76 76 76 76 76 76 76 76 76 76
75 74 74 73 73 73 73 73 73 72 72 72 71 77 73 72 69 67 69 68 66 66 67 68 68 67 67 68 70 72 73 74 73 73 73 73 73 73 73 73 73 73 74 74 74 74 74 74 74 74 74 74 74 74 74 74 75 76 76 76 76 76 76 76 76 76 75 76 76 76 76 76 76 76 76 76 76 76 76 76 76 76 76 76 76
74 74 73 73 73 72 72 73 72 73 73 71 74 72 71 70 69 66 65 66 68 66 67 67 66 69 69 67 64 69 71 72 73 74 74 74 74 74 75 74 73 73 74 74 74 74 74 74 74 74 74 74 74 74 74 75 75 76 76 76 76 76 76 76 76 75 75 75 75 76 76 76 76 76 76 76 76 76 76 76 76 76 76 76 76
72 73 73 73 73 72 72 72 72 73 72 70 71 69 70 70 69 69 67 66 65 66 67 67 68 67 63 66 65 66 64 66 70 71 75 74 74 74 74 74 74 74 75 74 74 74 74 74 74 74 74 74 74 74 74 74 75 76 76 76 76 76 76 76 76 76 75 75 75 76 76 76 76 76 76 76 76 76 76 76 76 76 76 76 76
72 73 74 73 73 73 72 72 72 72 72 71 71 69 70 69 68 69 69 66 64 66 68 67 67 69 68 66 64 63 63 65 67 67 74 73 74 74 74 73 73 73 74 74 74 74 74 74 74 74 74 74 74 74 73 74 74 75 75 76 76 76 76 76 76 76 76 76 76 76 76 76 76 76 76 76 76 76 76 76 76 76 76 76 76
71 72 73 74 73 73 72 72 71 71 72 70 70 71 70 68 68 68 68 68 65 65 65 69 67 72 69 67 66 63 64 67 66 62 68 74 74 74 74 74 73 73 73 74 74 74 74 74 74 74 74 74 74 74 74 74 75 74 74 75 77 77 77 77 77 76 76 76 76 76 76 76 76 76 76 76 76 75 76 76 76 76 76 76 76
71 72 72 74 73 73 73 72 72 71 73 71 70 69 69 68 68 68 67 69 67 65 65 67 68 71 72 72 73 72 69 66 64 66 61 66 72 73 73 73 74 73 73 73 73 74 74 74 74 74 74 74 74 74 74 74 75 75 76 76 76 77 77 77 77 77 77 76 76 76 76 76 76 76 76 76 76 76 76 76 76 76 76 76 76
71 71 72 73 73 73 73 72 71 70 71 72 70 69 69 69 69 68 67 70 68 66 66 68 64 66 73 70 73 72 72 71 69 65 63 62 64 69 72 72 72 73 73 73 73 73 74 75 74 74 74 74 74 74 74 74 74 75 75 77 77 77 77 77 77 77 77 77 76 76 76 76 76 76 76 76 76 76 76 76 76 75 75 75 75
71 71 71 72 74 73 72 72 71 70 72 72 71 69 69 68 68 72 70 70 68 68 67 66 66 65 70 70 71 70 71 71 71 70 66 63 64 66 67 71 72 72 72 73 73 74 74 74 74 74 74 74 74 74 74 74 74 74 75 77 77 77 77 77 77 77 77 77 77 76 76 76 76 76 76 76 76 76 76 76 76 75 75 75 75
70 71 71 71 72 73 72 71 70 69 72 70 70 70 69 69 68 69 69 67 68 69 66 66 67 66 69 70 69 69 69 69 69 68 69 66 64 64 67 67 66 68 73 73 73 73 74 74 74 74 73 73 74 74 74 74 74 74 75 76 77 77 77 77 77 77 78 77 77 77 77 77 77 76 76 76 76 76 76 76 76 76 76 76 75
69 70 70 70 70 71 71 70 70 71 71 70 70 69 68 68 68 67 70 67 68 68 70 68 68 68 70 70 69 69 69 69 69 68 68 67 67 67 68 69 68 68 70 73 73 73 73 73 74 74 73 73 74 74 74 74 75 75 76 76 77 77 78 78 78 78 78 78 78 77 77 77 77 77 76 76 76 76 76 76 76 76 75 75 75
69 69 69 69 70 70 71 70 71 70 70 70 69 69 69 68 67 68 68 68 68 70 68 67 68 69 69 70 70 70 70 69 70 69 69 69 68 67 67 67 69 70 72 72 73 74 73 73 73 74 74 74 74 75 75 74 74 76 76 76 76 77 77 78 78 78 78 79 78 78 77 77 77 77 77 77 77 76 76 76 76 76 76 76 75
68 68 68 68 68 69 69 70 70 71 71 70 70 70 70 69 68 66 67 68 68 69 68 67 67 70 69 70 70 70 69 69 71 70 70 70 70 66 67 68 66 67 70 72 70 73 75 74 74 74 75 75 75 75 75 75 75 76 77 76 76 76 77 77 78 79 79 79 79 79 78 77 76 77 76 76 76 76 76 76 76 76 76 75 75
68 68 68 68 68 68 69 69 70 71 72 71 71 71 71 70 68 69 68 68 69 69 68 68 69 69 69 69 69 69 69 70 70 71 70 70 69 68 67 68 69 68 69 70 72 70 71 74 76 76 76 76 75 75 75 75 74 76 77 76 75 76 76 76 77 79 79 79 79 79 79 78 77 76 76 76 76 76 76 76 76 76 76 76 76
69 68 69 68 67 67 68 69 69 71 72 72 72 71 71 71 70 69 70 71 71 71 69 69 70 70 70 70 69 69 69 70 70 71 71 70 70 70 68 66 66 67 68 69 70 71 69 73 74 74 76 76 76 75 75 75 75 76 76 76 75 75 75 75 76 77 79 79 79 79 79 78 78 76 76 76 76 75 75 76 76 76 76 75 76
72 72 70 69 67 67 68 68 69 70 71 72 71 71 71 70 69 71 71 75 72 71 71 71 70 71 71 72 71 71 71 71 70 70 71 71 71 71 70 68 66 64 66 66 67 69 72 71 72 74 74 75 75 75 75 75 74 76 76 75 75 74 74 75 75 76 77 79 79 79 79 79 78 77 76 75 75 75 75 75 75 75 75 74 74
73 72 71 71 71 69 67 67 68 69 70 71 71 71 71 71 70 70 70 74 73 72 72 71 71 72 71 71 70 70 70 71 71 71 70 70 69 69 70 68 67 65 63 64 64 67 70 73 68 71 75 75 74 74 74 74 74 75 74 76 75 74 73 74 74 75 76 77 77 78 78 78 78 77 76 75 76 75 75 75 75 75 73 72 72
73 73 72 70 69 70 71 70 69 69 69 70 71 70 71 71 71 71 70 72 72 72 73 72 71 71 71 70 70 70 71 71 71 70 70 70 70 69 69 69 69 67 66 65 65 68 70 71 71 71 73 75 74 74 74 74 75 75 75 74 75 74 73 74 74 74 75 75 76 77 77 78 78 78 77 76 75 76 75 75 74 73 73 73 72
73 73 72 70 70 69 69 69 70 69 69 69 70 71 71 70 70 71 71 71 71 72 72 72 71 72 71 71 71 70 71 70 70 70 71 71 70 69 69 71 71 68 68 67 64 68 72 69 71 74 73 74 75 74 73 74 75 75 75 74 74 75 75 74 74 74 74 74 74 75 77 78 78 78 77 76 76 76 75 75 74 74 73 73 72
72 72 73 73 71 70 70 69 68 69 69 70 70 70 71 70 71 71 71 71 70 70 71 73 72 72 71 71 71 71 71 70 70 70 70 70 70 70 71 71 71 70 69 68 66 66 71 71 70 70 72 74 75 73 73 74 75 76 75 74 75 75 75 75 74 73 73 73 73 74 74 76 77 78 78 77 76 76 76 74 74 74 74 73 73
73 72 72 71 70 70 69 69 69 69 70 70 69 69 70 70 71 71 71 72 71 71 71 72 73 72 71 71 71 71 71 71 70 70 70 70 71 70 71 72 71 71 70 69 67 67 69 72 71 70 73 75 73 74 73 73 73 74 74 74 74 75 75 76 75 72 72 73 73 73 73 74 75 77 77 77 77 76 75 74 74 74 74 74 74
73 72 71 70 70 69 68 70 71 71 71 69 69 69 70 70 70 71 71 72 72 71 72 72 72 72 72 71 71 71 71 71 71 71 71 72 70 71 71 70 70 72 71 69 68 68 67 69 71 72 72 74 72 74 73 73 72 73 73 73 74 74 74 75 75 75 72 72 72 72 72 72 73 75 76 77 77 76 75 74 74 75 75 75 75
73 72 72 71 71 70 71 71 70 70 71 71 71 70 69 70 70 70 71 72 72 72 72 72 72 72 72 72 71 71 72 71 71 71 71 71 72 70 71 72 71 71 72 70 68 67 67 68 70 71 72 73 72 71 73 74 73 73 72 73 73 74 74 75 75 75 72 71 71 72 71 71 72 72 74 75 75 75 75 75 74 73 73 73 72
72 72 72 72 72 72 71 71 70 71 70 71 71 70 69 70 70 71 71 71 72 72 72 72 72 72 72 72 71 71 72 71 71 71 71 72 72 72 71 72 72 71 71 71 70 68 68 67 69 71 71 72 72 72 74 74 74 74 73 72 73 73 73 75 76 75 74 71 71 71 71 70 70 70 71 72 72 73 72 71 72 71 71 70 71
72 73 73 73 72 71 71 71 71 71 71 71 70 70 70 69 70 71 71 72 72 72 72 72 74 73 72 72 72 72 72 71 71 72 71 71 71 71 70 71 71 71 70 71 71 70 69 68 69 71 71 72 72 72 74 72 71 72 73 73 73 73 74 75 75 75 74 71 70 69 70 70 70 69 69 69 69 70 70 70 70 70 69 69 69
72 73 73 73 73 72 71 72 72 71 71 71 71 71 70 70 69 71 71 72 72 72 73 73 73 74 73 73 73 72 72 71 71 71 72 71 71 70 70 71 71 71 71 71 71 71 70 69 69 69 70 71 70 72 72 72 70 70 72 73 73 74 73 73 74 74 74 74 73 72 69 68 68 68 68 68 68 68 68 68 68 68 68 67 67
72 72 73 72 73 72 71 72 72 72 72 71 71 70 70 69 70 70 71 72 72 72 72 73 74 74 74 73 73 72 72 72 72 72 72 71 71 70 71 70 71 70 71 71 71 71 71 70 70 70 70 71 71 70 71 72 71 71 70 70 72 72 73 73 73 73 73 73 72 71 71 71 70 70 68 67 67 67 67 67 67 68 67 66 65
72 71 72 72 72 73 72 72 72 72 71 70 70 70 70 70 70 71 71 71 72 72 72 73 74 74 74 73 73 73 73 73 73 73 72 71 71 70 70 70 70 71 71 71 71 71 71 70 70 70 70 70 69 70 72 72 71 71 72 71 70 70 71 72 73 73 72 72 72 72 72 71 70 70 69 68 67 67 67 67 67 68 68 67 65
73 72 72 72 72 72 73 73 72 72 71 70 70 70 70 71 71 72 72 72 72 72 72 73 73 73 73 73 73 72 74 75 76 75 74 74 71 70 70 71 71 71 71 72 71 71 71 70 70 69 68 68 69 68 69 71 71 71 69 71 71 71 70 70 71 72 73 73 72 72 72 71 70 70 70 69 69 68 68 68 68 68 68 67 66
72 72 72 72 72 72 72 72 72 72 72 71 72 72 72 71 72 73 73 73 73 72 72 72 72 72 72 72 73 75 76 76 76 76 76 75 75 73 71 71 71 71 71 71 71 71 70 70 70 70 69 68 68 69 69 69 70 70 70 70 70 69 68 68 69 70 73 73 72 71 72 73 71 70 70 70 70 71 70 69 68 68 67 66 66
71 71 72 72 72 72 71 71 71 71 72 72 73 70 70 71 73 72 72 72 73 73 72 72 72 72 72 72 72 74 75 76 76 76 76 76 75 75 75 75 74 71 70 70 70 71 71 70 70 70 69 69 69 69 69 70 70 71 70 70 70 68 67 67 67 69 72 73 71 70 70 72 73 71 71 71 71 71 71 70 68 67 66 65 65
71 71 71 71 71 71 72 72 71 71 71 73 69 69 70 70 73 73 72 72 72 72 72 72 72 72 72 72 72 72 73 74 74 75 76 76 75 75 74 74 75 74 73 72 71 71 71 70 70 70 69 69 69 69 69 70 70 70 71 69 69 69 68 68 66 67 69 73 71 68 70 69 73 72 71 72 72 70 68 67 66 66 66 65 65
71 71 71 71 70 71 72 71 71 71 71 71 68 68 68 68 70 75 72 71 72 72 72 72 72 71 71 71 72 72 72 75 76 74 73 74 75 74 74 75 75 74 71 72 73 72 71 70 70 69 70 69 69 70 71 70 72 70 69 69 69 69 69 68 69 68 69 73 70 70 70 70 71 72 71 69 67 66 65 64 65 65 66 65 65
71 71 71 71 71 71 72 71 71 71 71 71 67 67 67 67 68 71 72 72 71 72 72 72 72 71 71 71 71 72 72 73 74 74 73 72 72 73 73 73 72 73 73 72 73 73 73 71 70 70 70 70 70 70 72 72 71 70 70 69 68 68 68 69 69 69 69 73 70 70 68 70 70 71 71 68 66 64 63 62 62 63 63 62 62
70 70 70 70 71 71 72 72 71 71 71 69 66 66 65 65 66 70 71 71 72 72 72 72 71 71 71 71 72 72 72 72 73 74 72 72 71 71 72 72 72 72 72 72 72 72 72 72 71 71 71 71 71 71 71 73 72 71 71 70 70 69 69 70 68 68 70 71 71 70 68 67 67 70 70 67 64 62 62 61 62 62 62 62 62
69 70 70 70 70 70 71 71 71 71 71 68 66 65 65 64 66 70 70 70 71 71 71 71 71 72 72 72 72 72 72 72 74 75 75 72 71 70 70 71 72 73 73 75 72 71 73 71 72 73 72 72 72 73 73 72 72 72 73 72 71 70 69 69 69 68 68 69 71 71 69 68 67 69 67 67 64 63 62 61 61 62 61 61 61
69 69 69 69 69 69 70 70 70 70 70 68 65 64 64 63 66 69 70 70 70 70 70 71 71 71 72 72 72 72 72 71 72 69 71 74 71 70 70 71 72 72 72 73 70 70 70 69 69 70 70 69 68 68 68 70 73 72 71 70 70 70 69 68 69 68 68 67 70 71 69 66 66 68 67 66 65 64 62 61 60 60 60 60 60
67 68 68 69 68 69 69 69 69 69 69 69 64 63 63 63 67 68 69 69 70 70 70 71 72 72 72 73 73 72 72 71 70 66 68 74 71 70 70 70 71 70 70 71 71 72 69 68 68 68 69 69 69 69 69 68 69 73 70 68 67 69 68 68 67 66 65 66 68 71 68 67 65 66 66 67 67 66 63 61 61 59 59 58 59
67 67 69 69 68 68 69 69 71 70 69 69 64 62 62 62 66 68 69 69 69 69 70 70 71 72 72 73 74 74 72 71 66 65 66 74 71 71 71 70 70 69 69 70 71 70 70 70 70 70 71 71 71 70 71 69 71 73 70 67 66 66 65 65 66 64 63 63 66 70 68 64 66 66 67 66 66 66 65 62 63 59 59 60 58